This is the latest recevied weather packets stored in our database for station/object YT6PT-8. If no packets are shown the sender has not sent any weather packets the latest 10 day(s).
| Time | Temp. | Humidity | Pressure | Rain* | Wind** | Luminosity | Snow |
|---|---|---|---|---|---|---|---|
| 1787642432 | 25.56° C | 43% | 1007.1 hPa | 0 mm | 0.45 m/s, 45° | - | - |
| 1787642131 | 25.56° C | 43% | 1006.7 hPa | 0 mm | 0 m/s | - | - |
| 1787641831 | 25.56° C | 44% | 1006.7 hPa | 0 mm | 0 m/s | - | - |
| 1787641532 | 25.56° C | 44% | 1006.7 hPa | 0 mm | 0 m/s | - | - |
| 1787641254 | 25.56° C | 44% | 1006.7 hPa | 0 mm | 0 m/s | - | - |
| 1787640949 | 25.56° C | 42% | 1006.7 hPa | 0 mm | 0.45 m/s, 202° | - | - |
| 1787640649 | 25.56° C | 42% | 1006.7 hPa | 0 mm | 0.45 m/s, 202° | - | - |
| 1787640350 | 25° C | 43% | 1006.6 hPa | 0 mm | 0.45 m/s, 225° | - | - |
| 1787640052 | 25° C | 43% | 1006.6 hPa | 0 mm | 0.45 m/s, 225° | - | - |
| 1787639752 | 24.44° C | 43% | 1006.6 hPa | 0 mm | 0 m/s | - | - |
| 1787639449 | 24.44° C | 43% | 1006.6 hPa | 0 mm | 0 m/s | - | - |
| 1787639147 | 24.44° C | 43% | 1006.7 hPa | 0 mm | 1.34 m/s, 158° | - | - |
| 1787638849 | 24.44° C | 43% | 1006.7 hPa | 0 mm | 1.34 m/s, 158° | - | - |
| 1787638530 | 23.89° C | 43% | 1006.6 hPa | 0 mm | 0 m/s | - | - |
| 1787638232 | 23.89° C | 43% | 1006.6 hPa | 0 mm | 0 m/s | - | - |
| 1787637930 | 23.33° C | 44% | 1006.6 hPa | 0 mm | 0.45 m/s, 158° | - | - |
| 1787637637 | 23.33° C | 44% | 1006.6 hPa | 0 mm | 0.45 m/s, 158° | - | - |
| 1787637330 | 22.78° C | 44% | 1006.5 hPa | 0 mm | 0.89 m/s, 158° | - | - |
| 1787637036 | 22.78° C | 44% | 1006.5 hPa | 0 mm | 0.89 m/s, 158° | - | - |
| 1787636730 | 22.22° C | 44% | 1006.7 hPa | 0 mm | 1.34 m/s, 158° | - | - |
| 1787636429 | 22.22° C | 44% | 1006.7 hPa | 0 mm | 1.34 m/s, 158° | - | - |
| 1787636130 | 21.11° C | 44% | 1006.7 hPa | 0 mm | 0.89 m/s, 158° | - | - |
| 1787635831 | 21.11° C | 44% | 1006.7 hPa | 0 mm | 0.89 m/s, 158° | - | - |
| 1787635531 | 21.11° C | 45% | 1006.5 hPa | 0 mm | 1.79 m/s, 112° | - | - |
| 1787635238 | 21.11° C | 45% | 1006.5 hPa | 0 mm | 1.79 m/s, 112° | - | - |
* Rain latest hour (hover to see other rain measurements)
** Current wind speed in m/s (hover to see current wind gust speed)